Starlink 31685

operational
NORAD ID: 59578 Int'l Des: 2024-076 Owner: SPXS Country: US Constellation: starlink
LEOCIRCULAR

About Starlink 31685

Description loading...

Live Position

Loading 3D Globe...

Upcoming Passes

Altitude History

Altitude vs Time

uPlot chart will show altitude changes over time

Two-Line Element Set

1 59578U 24076Q 25308.51903923 .00003648 00000-0 14197-3 0 9999
2 59578 43.0041 355.5294 0001220 263.7150 96.3562 15.27594196 87364
Epoch: Nov 4, 2025 • Age: 9 hours

Current Status

Altitude 493.2 km
Velocity 7.62 km/s
Sub-Earth Point -37.19°S, 69.04°W
Launch Date Apr 23, 2024
Age 1.5 years
Type internet

Technical Details

Classification Payload
Mass 730.00 kg
Dry Mass 700.00 kg
Total Mass 730.00 kg
Length 0.30 m
Diameter 4.10 m
Span 29.00 m
Shape Box + pan
Manufacturer SPXS
Bus Type Starlink V2M
Phase Status In Orbit
Owner/State SPXS/US

Large Constellations

Loading constellations...